Location: Allonne
(49.4086°N, 2.1143°E)
Time: 06:15:44
(UTC+00:00)

Cosmos 1655 Rocket - Visible Passes

Search period start: 30 September 2023 00:00
Search period end: 10 October 2023 00:00
Orbit: 971 x 1005 km, 82.9° (Epoch: 29 September)

Date Brightness Start Highest point End Pass type
(mag) Time Alt. Az. Time Alt. Az. Time Alt. Az.
30 Sep 6.6 01:15:48 10° E 01:18:20 13° ENE 01:20:53 10° NE visible
30 Sep 4.3 02:59:47 33° SSE 03:02:46 69° E 03:09:07 10° NNE visible
30 Sep 5.1 04:44:46 13° WSW 04:49:01 25° WNW 04:54:13 10° N visible
01 Oct 5.9 01:44:30 19° ESE 01:46:54 23° E 01:51:44 10° NNE visible
01 Oct 4.0 03:29:29 39° SSW 03:31:56 70° W 03:38:22 10° N visible
01 Oct 5.6 05:15:22 10° W 05:18:52 15° NW 05:22:24 10° NNW visible
02 Oct 5.1 02:14:08 35° ESE 02:15:40 40° E 02:21:35 10° NNE visible
02 Oct 4.5 03:59:06 31° WSW 04:01:20 41° WNW 04:07:21 10° N visible
03 Oct 6.4 00:58:45 12° E 01:00:11 13° ENE 01:02:58 10° NE visible
03 Oct 4.2 02:43:43 62° SE 02:44:39 71° E 02:51:02 10° NNE visible
03 Oct 5.1 04:28:41 20° W 04:30:57 24° WNW 04:36:04 10° N visible
04 Oct 5.8 01:28:17 24° E 01:28:45 24° E 01:33:41 10° NNE visible
04 Oct 3.9 03:13:15 64° WSW 03:13:50 68° WNW 03:20:14 10° N visible
04 Oct 5.7 04:58:13 12° W 05:00:49 14° NW 05:04:11 10° NNW visible
05 Oct 5.0 01:57:46 42° E 01:57:46 42° E 02:03:29 10° NNE visible
05 Oct 4.5 03:42:44 39° W 03:43:15 39° WNW 03:49:13 10° N visible
06 Oct 6.4 00:42:16 14° ENE 00:42:16 14° ENE 00:45:02 10° NE visible
06 Oct 4.2 02:27:13 68° NE 02:27:13 68° NE 02:32:56 10° NNE visible
06 Oct 5.1 04:12:11 23° WNW 04:12:53 23° WNW 04:17:54 10° NNW visible
07 Oct 5.9 01:11:41 24° ENE 01:11:41 24° ENE 01:15:39 10° NNE visible
07 Oct 4.2 02:56:38 59° NW 02:56:38 59° NW 03:02:07 10° N visible
07 Oct 5.7 04:41:36 13° WNW 04:42:46 14° NW 04:45:56 10° NNW visible
08 Oct 5.3 01:41:04 37° NE 01:41:04 37° NE 01:45:24 10° NNE visible
08 Oct 4.7 03:26:01 36° NW 03:26:01 36° NW 03:31:05 10° N visible
09 Oct 6.5 00:25:28 13° ENE 00:25:28 13° ENE 00:27:04 10° NE visible
09 Oct 4.8 02:10:25 47° NNE 02:10:25 47° NNE 02:14:49 10° NNE visible
09 Oct 5.3 03:55:22 22° NW 03:55:22 22° NW 03:59:44 10° NNW visible
